{"data":{"norad_id":57448,"epoch":"2026-09-20T08:14:53.326464Z","epoch_age_seconds":141427,"freshness":"FRESH","line1":"1 57448U 23105U   26263.34367276  .00000508  00000+0  27969-4 0  9995","line2":"2 57448  43.0057 243.7849 0001529 279.2786  80.7892 15.27587283175155","mean_motion":15.27587283,"eccentricity":0.0001529,"inclination_deg":43.0057,"raan_deg":243.7849,"arg_perigee_deg":279.2786,"mean_anomaly_deg":80.7892,"bstar":2.7969e-5,"rev_number":17515,"period_min":94.26629928288,"perigee_km":481.97821618458,"apogee_km":484.07636022392,"semimajor_km":6861.1642882043,"source":"CELESTRAK","updated_at":"2026-09-21T09:00:33.627989Z"}}